Shannon, Ireland

4:46 PM IST on June 28, 2017 (GMT +0100)
Shannon

Weather History for EINN - July, 2013

Change the Weather History Date:

Monday, July 29, 2013

  Actual Average Record
Temperature  
Mean Temperature 63 °F -  
Max Temperature 68 °F 67 °F 77 °F (1999)
Min Temperature 57 °F 53 °F 49 °F (2012)
Degree Days  
Heating Degree Days 2    
Growing Degree Days 13 (Base 50)    
Moisture  
Dew Point 56 °F    
Average Humidity 81    
Maximum Humidity 100    
Minimum Humidity 60    
Precipitation  
Precipitation 0.02 in 0.11 in - ()
Sea Level Pressure  
Sea Level Pressure 29.71 in    
Wind  
Wind Speed 9 mph ()    
Max Wind Speed 20 mph    
Max Gust Speed 29 mph    
Visibility 6.5 miles    
Events Rain    
Averages and records for this station are not official NWS values.
T = Trace of Precipitation, MM = Missing Value Source: Averaged Metar Reports

Daily Weather History Graph

Daily Weather History Graph

Search for Another Location

Airport or City:

Trip Planner

Search our weather history database for the weather conditions in past years. The results will help you decide how hot, cold, wet, or windy it might be!

Date:

Astronomy

Jul. 29, 2013 Rise Set
Actual Time 5:50 AM IST 9:33 PM IST
Civil Twilight 5:06 AM IST 10:16 PM IST
Nautical Twilight 4:06 AM IST 11:15 PM IST
Astronomical Twilight 2:23 AM IST 12:53 AM IST
Moon No Moon Rise 2:28 PM IST (7/29)
Length of Visible Light 17h 09m
Length of Day
15h 43m
Waning Gibbous, 53% of the Moon is Illuminated
Jul 29
Waning Gibbous
Jul 29
Last Quarter
Aug 6
New
Aug 14
First Quarter
Aug 21
Full

Hourly Weather History & Observations

Time (IST) Temp. Dew Point Humidity Pressure Visibility Wind Dir Wind Speed Gust Speed Precip Events Conditions
12:00 AM 60.8 °F 59.0 °F 94% 29.59 in 6.2 mi SSW 6.9 mph - N/A   Scattered Clouds
12:30 AM 60.8 °F 59.0 °F 94% 29.59 in 6.2 mi South 5.8 mph - N/A   Scattered Clouds
1:00 AM 61 °F 60 °F 94% 29.62 in 12 mi South 6.7 mph - -   Partly Cloudy
1:00 AM 60.8 °F 59.0 °F 94% 29.59 in 6.2 mi South 5.8 mph - N/A   Mostly Cloudy
1:30 AM 60.8 °F 59.0 °F 94% 29.59 in 6.2 mi South 5.8 mph - N/A   Partly Cloudy
2:00 AM 59.0 °F 59.0 °F 100% 29.62 in 6.2 mi South 4.6 mph - N/A   Partly Cloudy
2:30 AM 59.0 °F 59.0 °F 100% 29.62 in 6.2 mi South 6.9 mph - N/A   Scattered Clouds
3:00 AM 60.8 °F 59.0 °F 94% 29.62 in 6.2 mi South 6.9 mph - N/A   Mostly Cloudy
3:30 AM 59.0 °F 57.2 °F 94% 29.62 in 6.2 mi SSE 6.9 mph - N/A Rain Light Rain Showers
4:00 AM 59.0 °F 57.2 °F 94% 29.62 in 6.2 mi SSE 6.9 mph - N/A   Scattered Clouds
4:30 AM 59.0 °F 57.2 °F 94% 29.62 in 6.2 mi South 4.6 mph - N/A   Partly Cloudy
5:00 AM 59.0 °F 57.2 °F 94% 29.62 in 6.2 mi SSE 5.8 mph - N/A Rain Light Rain Showers
5:30 AM 59.0 °F 57.2 °F 94% 29.62 in 6.2 mi SE 5.8 mph - N/A   Mostly Cloudy
6:00 AM 59.0 °F 57.2 °F 94% 29.62 in 6.2 mi SE 5.8 mph - N/A   Partly Cloudy
6:30 AM 59.0 °F 57.2 °F 94% 29.62 in 6.2 mi SSE 5.8 mph - N/A   Scattered Clouds
7:00 AM 59 °F 56 °F 88% 29.64 in 19 mi SSE 8.9 mph - -   Partly Cloudy
7:00 AM 59.0 °F 57.2 °F 94% 29.62 in 6.2 mi SSE 6.9 mph - N/A   Partly Cloudy
7:30 AM 59.0 °F 57.2 °F 94% 29.62 in 6.2 mi SSE 5.8 mph - N/A   Partly Cloudy
8:00 AM 60.8 °F 57.2 °F 88% 29.62 in 6.2 mi SSE 5.8 mph - N/A   Scattered Clouds
8:30 AM 60.8 °F 57.2 °F 88% 29.65 in 6.2 mi South 8.1 mph - N/A   Partly Cloudy
9:00 AM 64.4 °F 59.0 °F 83% 29.65 in 6.2 mi SW 16.1 mph - N/A   Partly Cloudy
9:30 AM 64.4 °F 59.0 °F 83% 29.65 in 6.2 mi SW 18.4 mph - N/A   Partly Cloudy
10:00 AM 64.4 °F 57.2 °F 77% 29.68 in 6.2 mi SW 17.3 mph - N/A   Partly Cloudy
10:30 AM 66.2 °F 57.2 °F 73% 29.68 in 6.2 mi SW 19.6 mph - N/A   Mostly Cloudy
11:00 AM 66.2 °F 57.2 °F 73% 29.68 in 6.2 mi SW 19.6 mph - N/A   Partly Cloudy
11:30 AM 62.6 °F 59.0 °F 88% 29.68 in 6.2 mi SW 16.1 mph - N/A Rain Light Rain Showers
12:00 PM 66.2 °F 59.0 °F 78% 29.68 in 6.2 mi SW 16.1 mph - N/A   Scattered Clouds
12:30 PM 64.4 °F 55.4 °F 73% 29.71 in 6.2 mi West 17.3 mph - N/A   Scattered Clouds
1:00 PM 63 °F 57 °F 75% 29.74 in 5 mi West 17.9 mph - - Rain Light Rain Showers
1:00 PM 62.6 °F 57.2 °F 82% 29.71 in 5.0 mi West 17.3 mph 28.8 mph N/A Rain Light Rain Showers
1:30 PM 64.4 °F 57.2 °F 77% 29.74 in 6.2 mi West 10.4 mph - N/A   Mostly Cloudy
2:00 PM 66.2 °F 53.6 °F 64% 29.74 in 6.2 mi West 16.1 mph - N/A   Scattered Clouds
2:30 PM 66.2 °F 53.6 °F 64% 29.74 in 6.2 mi West 18.4 mph - N/A   Partly Cloudy
3:00 PM 66.2 °F 53.6 °F 64% 29.74 in 6.2 mi WSW 18.4 mph - N/A   Mostly Cloudy
3:30 PM 68.0 °F 53.6 °F 60% 29.77 in 6.2 mi West 16.1 mph - N/A   Scattered Clouds
4:00 PM 66.2 °F 53.6 °F 64% 29.77 in 6.2 mi WSW 16.1 mph - N/A   Scattered Clouds
4:30 PM 64.4 °F 55.4 °F 73% 29.77 in 6.2 mi West 17.3 mph - N/A   Scattered Clouds
5:00 PM 66.2 °F 55.4 °F 68% 29.80 in 6.2 mi West 13.8 mph - N/A   Partly Cloudy
5:30 PM 64.4 °F 53.6 °F 68% 29.80 in 6.2 mi WSW 13.8 mph - N/A   Scattered Clouds
6:00 PM 66.2 °F 53.6 °F 64% 29.80 in 6.2 mi WSW 15.0 mph - N/A   Mostly Cloudy
6:30 PM 66.2 °F 51.8 °F 60% 29.80 in 6.2 mi West 15.0 mph - N/A   Scattered Clouds
7:00 PM 62.6 °F 51.8 °F 68% 29.80 in 6.2 mi WSW 17.3 mph - N/A   Mostly Cloudy
7:30 PM 64.4 °F 51.8 °F 64% 29.83 in 6.2 mi WSW 17.3 mph - N/A   Scattered Clouds
8:00 PM 62.6 °F 51.8 °F 68% 29.83 in 6.2 mi WSW 13.8 mph - N/A   Partly Cloudy
8:30 PM 60.8 °F 53.6 °F 77% 29.83 in 6.2 mi WSW 12.7 mph - N/A   Scattered Clouds
9:00 PM 59.0 °F 53.6 °F 82% 29.83 in 6.2 mi West 16.1 mph - N/A Rain Light Rain Showers
9:30 PM 59.0 °F 51.8 °F 77% 29.83 in 6.2 mi SW 8.1 mph - N/A   Mostly Cloudy
10:00 PM 59.0 °F 51.8 °F 77% 29.83 in 6.2 mi SW 9.2 mph - N/A   Partly Cloudy
10:30 PM 59.0 °F 51.8 °F 77% 29.86 in 6.2 mi South 8.1 mph - N/A   Partly Cloudy
11:00 PM 59.0 °F 51.8 °F 77% 29.86 in 6.2 mi SW 6.9 mph - N/A   Scattered Clouds
11:30 PM 57.2 °F 55.4 °F 94% 29.86 in 6.2 mi SSW 5.8 mph - N/A   Partly Cloudy